[[{"header":{"parameterUnit":"m.s-1","parameterCategory":1,"la1":30.2991,"la2":30.254,"lo1":-89.0895,"lo2":-89.0444,"dy":0.0017,"dx":0.0017,"nx":28,"ny":28,"refTime":"2024-07-20T21:00:00:Z","depth":0,"parameterNumber":2,"parameterNumberName":"U-component_of_WINDS"},"data":[0,0,0,0,0,0,0,0,0,0,0,0,0,0,0,0,0,0,0,0,0,0,0,0,0,0,0,0,0,0,0,0,0,0,0,0,0,0,0,0,0,0,0,0,0,0,0,0,0,0,0,0,0,0,0,0,0,0,2.7846,2.7847,0,2.7933,2.7934,2.7935,2.7909,2.7907,2.7905,2.7904,2.7992,2.7996,2.8,0,0,0,0,0,0,0,0,0,0,0,0,0,2.7653,2.7657,2.7846,2.7847,2.7848,2.7933,2.7934,2.7935,2.7909,2.7907,2.7905,2.7903,2.7991,2.7996,2.8001,0,0,0,0,0,0,0,0,0,0,0,0,0,2.7738,2.7658,2.7846,2.7845,2.7846,2.7933,2.7934,2.7936,2.791,2.7907,2.7904,2.7902,2.7989,2.7995,2.8001,2.8094,0,0,2.802,2.8023,0,0,0,0,0,0,0,0,2.7734,2.7745,2.7844,2.7845,2.7846,2.7907,2.7899,2.7989,2.791,2.7886,2.7904,2.79,2.7966,2.7974,2.7996,2.8098,2.8102,2.802,2.8024,2.8027,2.8028,0,0,0,0,0,0,0,2.7728,2.7742,2.788,2.7846,2.7847,2.784,2.7849,2.7916,2.794,2.7887,2.7886,2.7897,2.7966,2.7991,2.7998,2.8103,2.802,2.8026,2.8029,2.8032,2.828,2.8283,0,0,0,0,0,0,2.7721,2.7737,2.7878,2.7883,2.7782,2.7845,2.7855,2.7891,2.7939,2.7944,2.7899,2.7895,2.7982,2.7991,2.8001,2.8109,2.8027,2.8032,2.8036,2.8277,2.8281,2.8284,0,0,0,0,0,0,2.7717,2.7734,2.7874,2.7809,2.7827,2.7852,2.7891,2.7894,2.7918,2.7948,2.7952,2.7919,2.798,2.7993,2.807,2.8112,2.8035,2.8041,2.8274,2.8278,2.8282,2.8328,0,0,0,0,0,0,2.7712,2.7733,2.7769,2.781,2.783,2.7942,2.7894,2.7897,2.7929,2.7925,2.7968,2.7973,2.7979,2.8061,2.8076,2.8119,2.8045,2.827,2.8276,2.8281,2.8323,2.8334,2.8343,0,0,0,0,0,2.7705,2.7779,2.7771,2.7788,2.7876,2.7945,2.7956,2.7961,2.7932,2.7968,2.7987,2.7971,2.8106,2.8069,2.8086,2.8131,2.8267,2.8274,2.828,2.8319,2.8332,2.8343,0,0,0,0,0,0,2.7743,2.7785,2.7776,2.7866,2.7902,2.794,2.7986,2.7976,2.8021,2.8015,2.8019,2.8029,2.8108,2.8128,2.8086,2.8221,2.8182,2.8192,2.8205,2.8218,2.8228,2.822,2.805,0,0,0,0,0,2.7761,2.7814,2.7848,2.7924,2.7942,2.7961,2.7991,2.7992,2.8029,2.8044,2.8069,2.8105,2.8155,2.8188,2.8236,2.8326,2.8334,2.8366,2.8376,2.8384,2.8392,2.8437,2.8451,2.8306,2.8306,2.8305,0,0,2.78,2.783,2.7863,2.7932,2.796,2.8013,2.7974,2.8033,2.8071,2.8053,2.8127,2.8146,2.8187,2.827,2.8308,2.8289,2.8434,2.8392,2.8398,2.8402,2.8445,2.8459,2.8471,2.831,2.8309,2.8309,0,0,2.7898,2.7927,2.7992,2.802,2.8063,2.8074,2.809,2.8129,2.8141,2.8215,2.8201,2.8247,2.8334,2.8362,2.8388,2.8494,2.848,2.851,2.8561,2.8605,2.8616,2.8627,2.8661,2.8674,2.8518,2.8518,2.8519,0,2.7941,2.8021,2.8026,2.8085,2.8115,2.81,2.8164,2.8192,2.8248,2.8268,2.8246,2.8352,2.8379,2.8467,2.8492,2.8515,2.8531,2.8504,2.8615,2.8625,2.8634,2.8667,2.8681,2.8521,2.8521,2.8521,2.8521,0,2.8071,2.8126,2.8173,2.8226,2.8261,2.8323,2.8336,2.837,2.8368,2.8381,2.8455,2.8486,2.8538,2.856,2.8559,2.8647,2.8633,2.8613,2.8573,2.8651,2.8682,2.8695,2.8526,2.8525,2.8524,2.8523,0,0,2.8195,2.8248,2.8265,2.8287,2.8332,2.8375,2.8434,2.8485,2.8513,2.8552,2.86,2.8673,2.8654,2.8683,2.8685,2.8725,2.8802,2.8699,2.87,2.8715,2.8897,2.891,2.8924,2.8794,2.8797,2.8799,2.8892,0,2.8294,2.8398,2.8403,2.8498,2.8548,2.8534,2.8585,2.8617,2.8631,2.8674,2.8689,2.8739,2.8712,2.8729,2.8768,2.8784,2.8838,2.8778,2.8837,2.8839,2.8824,2.8941,2.8955,2.9042,2.8905,2.8907,2.8909,0,2.8423,2.8464,2.8564,2.8598,2.8619,2.8666,2.8711,2.8753,2.8788,2.8795,2.8827,2.8822,2.8881,2.8841,2.8921,2.888,2.8904,2.8916,2.8919,2.8923,2.8877,2.8945,2.9071,2.9083,2.8928,2.8927,2.8925,0,2.8499,2.858,2.8649,2.8669,2.8712,2.8744,2.8764,2.8796,2.8826,2.8865,2.8883,2.893,2.8955,2.899,2.8997,2.8967,2.9076,2.9037,2.9081,2.9081,2.9103,2.9101,2.9231,2.9123,2.9123,2.9123,2.9123,0,2.8608,2.8668,2.8683,2.8725,2.8792,2.8797,2.8862,2.8879,2.8908,2.8952,2.8943,2.8984,2.8993,2.9035,2.9042,2.9105,2.9117,2.9122,2.9123,2.9122,2.912,2.9136,2.9129,2.9126,2.9126,2.9125,2.9124,0,2.8704,2.8716,2.879,2.8824,2.8834,2.8881,2.8909,2.8949,2.8961,2.9016,2.903,2.9048,2.9098,2.9109,2.9168,2.9172,2.9246,2.9242,2.9234,2.9232,2.9275,2.9269,2.9418,2.9436,2.9319,2.932,2.9321,0,2.8771,2.8817,2.8855,2.8883,2.8904,2.8951,2.8979,2.8986,2.9016,2.9058,2.9092,2.914,2.9179,2.9258,2.9276,2.932,2.9316,2.9364,2.9322,2.9318,2.9312,2.9308,2.9311,2.9372,2.9373,2.9374,2.9375,0,2.8887,2.889,2.8933,2.8977,2.9011,2.9047,2.908,2.9104,2.9114,2.9148,2.9198,2.9228,2.9287,2.9334,2.9378,2.9397,2.9387,2.9388,2.94,2.9398,2.939,2.9391,2.9252,2.9384,2.9383,2.9383,2.9382,2.9382,2.8968,2.9007,2.9039,2.9086,2.9111,2.9142,2.9179,2.9195,2.9237,2.9285,2.9286,2.934,2.9371,2.9429,2.9451,2.9492,2.9476,2.9495,2.9499,2.9502,2.9504,2.9386,2.95,2.95,2.95,2.9499,2.9499,0,2.9081,2.9101,2.9144,2.919,2.9226,2.9213,2.9249,2.9279,2.9327,2.9357,2.9395,2.945,2.9495,2.9517,2.9561,2.9589,2.9585,2.96,2.9597,2.96,2.9517,2.9501,2.9602,2.9602,2.9602,2.9602,2.9602,2.9602,2.9144,2.9208,2.9215,2.929,2.9309,2.9361,2.9382,2.9409,2.9433,2.9495,2.9532,2.9546,2.9572,2.9617,2.9657,2.9662,2.9677,2.9694,2.9696,2.9617,2.9607,2.9597,2.9581,2.9698,2.9698,2.9775,2.9776,2.9776]},{"header":{"parameterUnit":"m.s-1","parameterCategory":1,"la1":30.2991,"la2":30.254,"lo1":-89.0895,"lo2":-89.0444,"dy":0.0017,"dx":0.0017,"nx":28,"ny":28,"refTime":"2024-07-20T21:00:00:Z","depth":0,"parameterNumber":3,"parameterNumberName":"V-component_of_WINDS"},"data":[0,0,0,0,0,0,0,0,0,0,0,0,0,0,0,0,0,0,0,0,0,0,0,0,0,0,0,0,0,0,0,0,0,0,0,0,0,0,0,0,0,0,0,0,0,0,0,0,0,0,0,0,0,0,0,0,0,0,0.9622,0.9622,0,0.9626,0.9626,0.9626,0.9588,0.9587,0.9586,0.9585,0.959,0.9591,0.9592,0,0,0,0,0,0,0,0,0,0,0,0,0,0.9584,0.9585,0.9622,0.9622,0.9622,0.9626,0.9626,0.9626,0.9588,0.9587,0.9586,0.9585,0.959,0.9591,0.9592,0,0,0,0,0,0,0,0,0,0,0,0,0,0.9595,0.9585,0.9622,0.9604,0.9602,0.9626,0.9626,0.9626,0.9589,0.9587,0.9586,0.9584,0.9589,0.9591,0.9592,0.9634,0,0,0.9597,0.9598,0,0,0,0,0,0,0,0,0.9595,0.9597,0.9607,0.9605,0.9604,0.9605,0.9614,0.9628,0.9589,0.9594,0.9585,0.9583,0.9596,0.9597,0.9601,0.9634,0.9634,0.9598,0.9599,0.9599,0.96,0,0,0,0,0,0,0,0.9594,0.9596,0.9624,0.9607,0.9605,0.9596,0.9596,0.9616,0.9604,0.9593,0.9591,0.9591,0.9595,0.96,0.9601,0.9634,0.9598,0.9599,0.96,0.9601,0.9699,0.97,0,0,0,0,0,0,0.9595,0.9596,0.9624,0.9624,0.9595,0.9598,0.9598,0.9606,0.9603,0.9602,0.9593,0.959,0.9598,0.9599,0.9601,0.9648,0.9599,0.9601,0.9602,0.9697,0.9699,0.9701,0,0,0,0,0,0,0.9595,0.9598,0.9623,0.9609,0.9611,0.96,0.961,0.9607,0.9612,0.9603,0.9601,0.96,0.9597,0.9599,0.9625,0.9648,0.9602,0.9603,0.9695,0.9698,0.97,0.9744,0,0,0,0,0,0,0.9594,0.9598,0.9614,0.961,0.9612,0.9648,0.9611,0.9608,0.9614,0.961,0.9609,0.9607,0.9596,0.9623,0.9627,0.965,0.9604,0.9693,0.9696,0.9699,0.974,0.9747,0.9754,0,0,0,0,0,0.9593,0.9627,0.9615,0.9618,0.9632,0.9649,0.9651,0.9636,0.9616,0.9632,0.9626,0.9607,0.9645,0.9626,0.963,0.9654,0.9692,0.9695,0.9699,0.9737,0.9746,0.9753,0,0,0,0,0,0,0.9635,0.9626,0.9613,0.9647,0.9649,0.9643,0.9662,0.9646,0.9654,0.965,0.9632,0.9632,0.9661,0.966,0.9639,0.9692,0.9665,0.9669,0.9693,0.9701,0.9707,0.9707,0.9606,0,0,0,0,0,0.9648,0.9663,0.9654,0.9685,0.9686,0.9674,0.9681,0.9669,0.9671,0.9672,0.9668,0.9671,0.9683,0.9692,0.9703,0.9739,0.9738,0.9757,0.9764,0.9769,0.9774,0.9792,0.9801,0.9713,0.9713,0.9713,0,0,0.9676,0.9673,0.9684,0.9693,0.9694,0.9709,0.9675,0.9694,0.9705,0.9675,0.97,0.9697,0.9698,0.973,0.9744,0.973,0.9798,0.9774,0.9779,0.978,0.9797,0.9805,0.9813,0.9715,0.9715,0.9715,0,0,0.9735,0.9734,0.9759,0.9759,0.976,0.9751,0.9757,0.9753,0.9749,0.9773,0.9751,0.9764,0.9785,0.9787,0.9791,0.9848,0.9831,0.9852,0.9887,0.9905,0.9912,0.9918,0.9938,0.9945,0.9856,0.9856,0.9856,0,0.977,0.9792,0.9774,0.9793,0.9798,0.977,0.9795,0.9796,0.9801,0.9805,0.9788,0.9814,0.9813,0.9844,0.9858,0.9862,0.9868,0.9852,0.9912,0.9918,0.9923,0.9942,0.995,0.9859,0.9858,0.9858,0.9858,0,0.9834,0.985,0.987,0.9873,0.988,0.9902,0.9887,0.9896,0.9883,0.9876,0.99,0.9898,0.9907,0.9913,0.9902,0.9943,0.9934,0.9915,0.9887,0.9935,0.9952,0.9959,0.9862,0.9861,0.9861,0.986,0,0,0.9922,0.9913,0.9921,0.9922,0.9919,0.9931,0.9951,0.9959,0.9967,0.997,0.9986,1.0004,0.9986,0.9991,0.9978,0.9994,1.0039,0.9973,0.9973,0.9986,1.0083,1.0097,1.0106,1.0027,1.0028,1.0029,1.0083,0,0.9979,1.0012,0.9996,1.0032,1.0045,1.0018,1.0035,1.0036,1.0029,1.0039,1.0032,1.0045,1.002,1.0023,1.0037,1.003,1.0058,1.0026,1.0042,1.0043,1.0043,1.0115,1.0131,1.0182,1.0089,1.0091,1.0091,0,1.005,1.0055,1.0092,1.0085,1.009,1.0106,1.0111,1.0122,1.0121,1.0115,1.0118,1.0102,1.0121,1.0092,1.0118,1.0096,1.0101,1.0099,1.01,1.0102,1.0071,1.0119,1.0197,1.0205,1.0102,1.0101,1.01,0,1.011,1.0126,1.0149,1.0151,1.0143,1.0155,1.0153,1.015,1.0155,1.016,1.0163,1.017,1.0174,1.018,1.0166,1.0146,1.0193,1.0163,1.0189,1.0189,1.0201,1.02,1.0282,1.0203,1.0203,1.0203,1.0203,0,1.0175,1.0199,1.0176,1.0191,1.0216,1.0196,1.0222,1.0216,1.0214,1.0227,1.0204,1.0217,1.0196,1.0207,1.0196,1.0219,1.0221,1.0216,1.0213,1.0218,1.0219,1.0222,1.0218,1.0205,1.0205,1.0204,1.0204,0,1.0247,1.0233,1.0256,1.0247,1.0245,1.0264,1.0256,1.0269,1.0259,1.0276,1.0279,1.0265,1.0276,1.0262,1.0272,1.0264,1.0295,1.0286,1.0295,1.0293,1.0319,1.0317,1.0406,1.0416,1.0331,1.0332,1.0332,0,1.029,1.0307,1.0299,1.0305,1.0304,1.0315,1.032,1.0301,1.0307,1.0306,1.0319,1.0328,1.0334,1.0353,1.0344,1.0351,1.0343,1.0373,1.0344,1.0348,1.0343,1.0343,1.0344,1.038,1.0381,1.0382,1.0382,0,1.0368,1.0359,1.0367,1.0372,1.0378,1.0381,1.0382,1.0389,1.0368,1.0376,1.0387,1.0392,1.0401,1.041,1.0415,1.0412,1.0394,1.0391,1.0398,1.0404,1.0408,1.0406,1.0312,1.039,1.0389,1.0388,1.0388,1.0388,1.0427,1.044,1.0436,1.0445,1.0443,1.0444,1.0456,1.0447,1.0455,1.0461,1.0449,1.0462,1.046,1.0463,1.0463,1.0473,1.046,1.0469,1.0471,1.0474,1.0478,1.0406,1.0474,1.0473,1.0473,1.0473,1.0473,0,1.0503,1.0498,1.0507,1.0508,1.0515,1.0496,1.0496,1.0503,1.0515,1.0513,1.0519,1.0531,1.0539,1.053,1.0536,1.0546,1.0538,1.0548,1.0548,1.0547,1.0489,1.0483,1.0555,1.0555,1.0555,1.0555,1.0555,1.0555,1.0544,1.0565,1.0556,1.0576,1.0571,1.0583,1.0585,1.0586,1.0584,1.0598,1.0604,1.0597,1.0593,1.0598,1.0605,1.0602,1.0605,1.0619,1.0613,1.0559,1.0551,1.0544,1.0538,1.062,1.062,1.067,1.067,1.0671]}]]